CAPE
1174 1224 1917 1486 1450 1578 1593 1644 1633 1528 1553 1317 1391 1316 1232 879 1221 730 577 577 699 621 1089 1052 946 1168 1215 1137 965 864 779 777 907 957 1402 1638 1459 1031 981 1278 1404 1398 1396
996 1128 1961 1616 1514 1500 1502 1470 1608 1778 1725 1456 1404 1302 1124 946 1170 771 747 753 598 653 811 886 572 1178 1361 1241 974 710 554 619 929 634 766 933 1201 1330 960 1349 1682 1294 1286
923 969 1311 1809 1516 1395 1305 1262 1457 1614 1685 1434 1226 1376 1014 1125 1099 840 748 708 634 491 484 697 540 817 1198 1181 977 612 336 325 762 624 517 435 678 1106 730 1351 1561 1591 1211
486 970 1029 1841 1479 1445 1285 1228 1351 1409 1275 1264 1201 1229 1073 1136 1376 943 733 660 627 582 504 498 493 376 468 572 587 409 249 241 546 230 61 389 365 922 705 783 669 929 884
396 1010 1320 1795 1456 1409 1337 1300 1157 1165 1155 1208 1497 1331 1067 1288 875 689 724 659 592 517 410 310 290 251 177 142 100 216 227 257 215 19 2 320 373 622 589 733 635 585 749
621 1027 1559 1659 1429 1354 1306 1218 1168 1084 910 1003 1302 1380 1132 965 536 445 576 544 481 386 191 125 125 131 120 79 27 21 25 76 22 0 1 447 432 851 710 651 719 634 579
717 831 1094 1440 1353 1214 1183 1218 1151 973 919 767 940 977 816 907 591 378 397 265 233 171 164 209 206 172 139 98 24 0 1 16 0 0 61 352 526 804 853 745 650 541 457
695 867 726 1094 1103 1080 1006 909 893 928 868 917 1107 1001 826 890 785 518 285 227 288 365 466 504 468 426 443 335 213 85 18 0 0 0 1 34 781 617 632 803 684 579 493
320 550 673 606 898 1012 1002 1035 1004 927 997 908 960 1104 1117 1056 938 414 352 281 437 547 612 577 500 428 389 272 174 110 35 0 0 0 1 47 541 263 506 504 500 784 658
176 200 399 435 446 282 199 503 540 583 570 437 386 439 386 500 612 617 571 702 569 528 327 154 62 37 105 106 41 7 0 0 0 0 0 196 547 191 40 31 455 491 446
0 1 119 152 141 170 27 8 63 99 82 34 0 0 10 114 158 72 82 176 200 98 26 0 0 0 13 20 1 0 0 0 7 1 7 474 403 376 337 188 40 0 186
0 0 59 66 34 63 32 0 0 0 0 0 3 0 94 31 1 17 0 0 0 0 0 0 0 0 5 7 1 0 0 0 53 11 0 155 321 406 335 177 76 82 71
0 0 0 3 0 0 0 0 0 0 0 1 6 52 27 0 0 0 0 0 0 0 1 1 0 0 0 0 1 1 0 0 24 13 0 0 6 57 101 131 69 7 35
0 0 0 0 0 0 0 0 0 0 1 0 1 0 0 1 3 0 4 5 4 3 1 0 0 0 0 0 0 0 0 0 0 0 0 0 0 0 0 0 7 50 79
0 0 0 0 0 0 0 0 0 0 0 0 2 0 0 10 3 3 1 0 1 0 0 0 0 0 0 0 0 0 0 0 0 0 0 0 0 0 0 0 0 0 0
0 0 0 0 0 0 0 0 0 0 0 0 0 0 0 1 0 2 0 0 0 0 0 0 0 0 0 0 0 0 0 0 0 0 0 0 0 0 0 0 0 0 0
0 0 0 0 0 0 0 0 0 0 0 0 0 0 0 0 0 0 0 0 0 0 0 0 0 0 0 0 0 0 0 0 0 0 0 0 0 0 0 0 0 0 0
0 0 0 0 0 0 0 0 0 0 0 0 0 0 0 0 0 0 0 0 0 0 0 0 0 0 0 0 0 0 0 0 0 0 0 0 0 0 0 0 0 0 1
0 0 0 0 0 0 0 0 0 0 0 0 0 0 0 0 0 0 0 0 0 0 0 0 0 0 0 0 0 0 0 0 0 0 0 0 0 0 0 0 3 6 13
0 0 0 0 0 0 0 0 0 0 0 0 0 0 0 0 0 0 0 0 0 0 0 0 0 0 0 0 0 0 0 0 0 0 0 0 0 0 0 0 0 10 24
0 0 0 0 0 0 0 0 0 0 0 0 0 0 0 0 0 0 0 0 0 0 0 0 0 0 0 0 0 0 0 0 0 0 0 0 0 0 0 0 0 0 10
0 0 0 0 0 0 0 0 0 0 0 0 0 0 0 0 0 0 0 0 0 0 0 0 0 0 0 0 0 0 0 0 0 0 0 0 0 0 0 0 0 1 0
0 0 0 0 0 0 0 0 0 0 0 0 0 0 0 0 0 0 0 0 0 0 0 0 0 0 0 0 0 0 0 0 0 0 0 0 0 0 0 0 0 1 0
0 0 0 0 0 0 0 0 0 0 0 0 0 0 0 0 0 0 0 0 0 0 0 0 0 0 0 0 0 0 0 0 0 0 0 0 0 0 0 0 0 0 0
0 0 0 0 0 0 0 0 0 0 0 0 0 0 0 0 0 0 0 0 0 0 0 0 0 0 0 0 0 0 0 0 0 0 0 0 0 0 0 0 0 0 0
0 0 0 0 0 0 0 0 0 0 0 0 0 0 0 0 0 0 0 0 0 0 0 0 0 0 0 0 0 0 0 0 0 0 0 0 0 0 0 0 0 0 0
CIN
-61 -55 0 -1 0 0 0 0 0 0 0 0 0 0 0 0 0 -8 -14 -2 0 0 0 0 0 0 0 0 0 -6 -18 -27 -26 -25 -7 -6 -2 -5 -6 -6 -5 -1 0
-115 -79 0 -1 0 0 0 0 0 0 0 0 0 0 0 0 0 0 -2 -3 -17 -5 0 -1 -6 0 0 0 0 -7 -20 -24 -23 -28 -31 -36 -20 -2 -4 -4 -4 -1 0
-126 -123 -30 0 0 0 0 0 0 0 0 0 0 0 0 0 0 0 -4 -10 -23 -41 -35 -2 -6 -1 0 0 0 -12 -34 -50 -45 -61 -41 -40 -34 -7 -9 -2 -3 0 0
-219 -101 -84 0 -1 -1 -5 -2 0 0 0 0 0 0 0 0 0 0 -1 -18 -29 -33 -42 -45 -35 -65 -31 -14 -10 -20 -48 -57 -61 -107 -136 -16 -21 -2 -2 -3 -3 -1 -3
-308 -126 -39 0 -8 -6 -5 -2 -1 0 0 0 0 0 0 0 0 -1 -2 -17 -26 -37 -54 -73 -80 -92 -112 -146 -169 -71 -62 -60 -76 -31 -66 -37 -28 -2 -1 -5 -2 -4 -3
-240 -127 -11 -1 -12 -4 -2 0 0 0 -2 -2 0 0 0 -1 -27 -29 -7 -16 -26 -39 -81 -111 -129 -140 -167 -206 -266 -261 -230 -175 -227 0 -126 -32 -18 0 0 -2 -2 -4 -5
-230 -187 -80 -13 -12 -23 -23 -8 -2 -7 -5 -15 -1 0 -1 0 -16 -52 -46 -112 -119 -160 -158 -130 -132 -145 -160 -190 -266 0 -273 -243 0 0 -87 -40 -5 0 0 -1 -2 -2 -5
-247 -195 -206 -71 -54 -53 -54 -79 -50 -27 -26 -8 0 -1 0 0 -3 -28 -108 -145 -106 -70 -35 -24 -37 -44 -43 -71 -112 -197 -317 0 0 0 -82 -216 -2 0 0 0 -1 -4 -9
-410 -301 -241 -259 -118 -78 -63 -47 -42 -40 -20 -21 -15 -3 -2 -1 -2 -83 -90 -92 -34 -18 -1 -18 -23 -35 -51 -96 -132 -168 -286 0 0 0 -257 -201 -6 -21 -3 -2 -1 0 0
-506 -476 -349 -324 -300 -390 -433 -226 -197 -166 -153 -187 -197 -162 -168 -117 -71 -57 -55 -19 -29 -38 -91 -168 -257 -294 -216 -205 -281 -334 0 0 -3 0 0 -96 -4 -34 -97 -101 -4 -1 -5
0 -562 -517 -470 -449 -433 -599 -563 -315 -450 -470 -434 0 0 -539 -340 -295 -376 -357 -243 -196 -255 -344 -123 0 -17 -360 -226 -44 0 0 -18 -98 -21 -146 -30 -7 -5 -8 -33 -96 0 -23
0 -229 -567 -542 -548 -481 -517 0 0 0 0 0 -184 0 -333 -381 -72 -152 0 0 0 0 0 0 0 0 -262 -84 -29 0 0 0 -244 -60 -22 -116 -24 -6 -10 -28 -53 -41 -36
0 0 0 -675 0 0 0 0 -83 0 -2 -65 -64 -320 -342 0 0 0 0 0 0 0 -37 -11 -24 0 0 0 -3 -4 0 0 -52 -53 0 0 -45 -108 -48 -31 -48 -43 -58
0 0 0 0 0 0 0 0 0 0 -11 0 -6 0 0 -9 -13 -6 -16 -16 -11 -12 -1 0 0 0 0 0 0 0 0 0 0 -10 0 0 0 0 0 0 -14 -43 -33
0 0 0 0 0 0 0 0 0 0 0 0 -17 0 -4 -11 -8 -11 -9 -1 -7 0 0 0 0 0 0 0 0 0 0 0 0 0 0 0 0 0 0 0 0 0 0
0 0 0 0 0 0 0 0 0 0 0 -3 0 0 0 -5 0 -14 0 0 0 0 0 0 0 0 0 0 0 0 0 0 0 0 0 0 0 0 0 0 0 0 0
0 0 0 0 0 0 0 0 0 0 0 0 0 0 0 0 0 0 0 0 0 0 0 0 0 0 0 0 0 0 0 0 0 0 0 0 0 0 0 0 0 0 0
0 0 0 0 0 0 0 0 0 0 0 0 0 0 0 0 0 0 0 0 0 0 0 0 0 0 0 0 0 0 0 0 0 0 0 0 0 0 0 0 0 0 0
0 0 0 0 0 0 0 0 0 0 0 0 0 0 0 0 0 0 0 0 0 0 0 0 0 0 0 0 0 0 0 0 0 0 0 0 0 0 0 0 -22 -23 -8
0 0 0 0 0 0 0 0 0 0 0 0 0 0 0 0 0 0 0 0 0 0 0 0 0 0 0 0 0 0 0 0 0 0 0 0 0 0 0 0 0 -36 -22
0 0 0 0 0 0 0 0 0 0 0 0 0 0 0 0 0 0 0 0 0 0 0 0 0 0 0 0 0 0 0 0 0 0 0 0 0 0 0 0 0 0 -28
0 0 0 0 0 0 0 0 0 0 0 0 0 0 0 0 0 0 0 0 0 0 0 0 0 0 0 0 0 0 0 0 0 0 0 0 0 0 0 0 0 -1 -2
0 0 0 0 0 0 0 0 0 0 0 0 0 0 0 0 0 0 0 0 0 0 0 0 0 0 0 0 0 0 0 0 0 0 0 0 0 0 0 0 0 -3 0
0 0 0 0 0 0 0 0 0 0 0 0 0 0 0 0 0 0 0 0 0 0 0 0 0 0 0 0 0 0 0 0 0 0 0 0 0 0 0 0 0 0 0
0 0 0 0 0 0 0 0 0 0 0 0 0 0 0 0 0 0 0 0 0 0 0 0 0 0 0 0 0 0 0 0 0 0 0 0 0 0 0 0 0 0 -1
0 0 0 0 0 0 0 0 0 0 0 0 0 0 0 0 0 0 0 0 0 0 0 0 0 0 0 0 0 0 0 0 0 0 0 0 0 0 0 0 0 -3 -4
Wind_Speed
10 8 9 9 9 7 7 7 7 7 8 8 8 9 10 10 12 13 12 13 13 13 14 17 16 14 14 15 15 14 12 11 10 10 9 11 10 10 11 10 11 8 11
14 11 9 9 9 8 8 8 7 7 7 7 8 9 10 9 11 12 12 13 14 14 14 15 16 15 15 15 15 14 13 12 10 7 7 9 10 10 11 11 11 9 11
14 12 10 10 9 9 8 7 8 7 7 7 7 9 9 9 10 11 12 12 13 13 13 14 14 15 16 15 13 13 12 12 12 11 5 2 6 10 10 9 9 9 11
7 12 11 10 9 10 9 8 8 8 8 7 7 8 9 9 11 11 11 11 11 12 12 12 12 13 13 13 13 13 13 14 14 16 8 8 9 11 9 8 8 8 8
7 12 10 10 9 9 9 9 8 8 7 7 7 8 8 9 10 10 10 10 10 10 10 10 11 11 11 13 13 12 13 13 15 7 7 9 7 10 9 9 8 9 8
9 11 10 9 9 9 9 9 8 8 7 7 7 7 8 7 9 9 9 8 9 9 9 9 10 11 12 12 12 12 12 13 11 7 7 12 7 11 10 10 9 9 8
11 10 8 10 10 9 8 8 8 8 7 7 7 6 7 7 8 8 8 8 8 8 9 9 9 10 10 10 10 10 10 11 7 6 7 8 6 12 11 10 9 9 8
9 10 8 9 8 9 8 7 6 7 7 7 6 7 7 7 8 8 7 7 7 8 8 8 8 8 8 8 9 9 9 9 7 6 7 6 9 11 11 12 10 7 6
6 8 8 8 8 9 8 7 6 6 7 7 8 8 8 7 8 8 7 6 7 7 7 7 7 7 6 6 7 7 8 10 6 2 7 5 9 10 10 10 10 9 8
5 4 8 8 7 7 5 6 6 6 7 7 7 7 8 8 8 8 8 7 8 8 7 6 5 4 3 2 4 6 7 10 6 1 5 4 7 8 9 9 8 7 7
6 6 6 7 6 8 8 6 6 6 7 7 6 5 6 3 5 7 7 8 7 6 5 2 1 4 5 5 5 7 7 4 3 6 4 10 8 7 7 7 8 8 7
8 7 6 6 6 6 7 7 6 6 5 5 5 5 3 4 5 7 6 6 6 4 4 3 3 5 7 2 3 6 2 5 4 5 3 10 8 6 7 7 7 7 6
9 7 8 7 7 6 3 5 3 3 3 3 3 3 3 4 3 3 3 3 3 4 3 3 4 1 4 3 3 3 3 4 2 3 4 7 6 7 7 8 8 7 8
8 9 9 8 6 6 4 3 4 3 3 3 3 4 2 2 2 2 3 2 2 1 2 0 2 0 1 3 1 1 3 4 3 3 4 5 5 6 7 8 9 9 8
8 7 8 8 7 5 5 4 3 3 3 4 4 3 2 2 2 2 1 1 1 3 2 3 3 4 5 5 5 3 3 1 2 1 2 4 4 2 5 8 9 9 9
9 8 7 7 7 6 4 4 2 3 4 4 3 4 4 2 2 1 3 2 3 3 3 3 2 2 3 2 5 4 5 5 5 4 2 2 2 1 3 6 9 10 11
8 9 8 8 7 7 5 4 2 1 4 3 3 4 3 2 3 3 2 2 2 2 2 3 3 3 2 2 1 3 2 3 2 4 2 1 1 2 3 5 6 8 10
9 10 10 10 9 8 7 6 4 4 3 3 4 4 4 2 2 2 3 2 3 1 1 2 2 3 4 3 2 3 2 2 3 3 2 2 3 3 2 2 4 6 8
9 10 11 11 10 9 8 5 5 6 4 4 4 5 5 3 2 2 2 3 2 0 1 1 2 2 2 4 3 3 3 2 3 3 4 2 3 3 3 2 1 1 4
9 10 10 10 10 9 5 5 3 4 2 3 3 4 5 4 3 1 2 3 2 2 1 1 1 1 1 2 3 4 4 3 2 2 2 3 3 4 3 4 1 3 4
7 8 9 10 9 8 3 4 4 4 3 2 4 6 7 6 5 2 3 4 2 1 2 2 1 1 2 1 2 4 4 5 3 1 1 1 2 4 5 5 4 3 2
8 7 8 9 11 8 5 4 4 4 3 4 3 5 5 6 5 4 3 3 4 2 2 1 1 1 1 2 1 1 3 4 2 3 2 2 3 3 3 2 5 4 4
8 7 6 8 10 10 8 5 3 3 3 3 3 3 4 6 7 4 4 4 3 2 2 3 2 2 1 2 2 3 2 1 3 2 1 2 2 1 2 1 1 3 4
7 8 7 6 8 8 9 6 6 5 5 4 4 3 4 6 6 5 4 3 3 2 2 3 3 2 2 2 2 3 2 3 1 4 2 1 2 3 2 2 2 2 3
7 6 5 4 5 7 7 7 4 3 3 3 4 7 5 5 6 6 5 4 4 3 3 3 2 1 1 2 2 1 2 3 3 4 3 2 2 3 2 2 2 3 4
5 6 4 4 4 6 7 8 8 8 7 5 5 5 5 4 4 6 6 5 5 4 3 3 2 2 2 2 1 2 1 2 1 2 3 4 4 3 2 1 2 2 3
Wind_Direction
113 111 112 109 103 103 102 95 98 97 90 84 82 82 80 70 78 70 66 62 54 57 50 57 49 51 62 61 57 54 50 50 63 70 76 76 65 60 53 36 90 74 75
112 113 112 108 103 97 97 99 100 103 96 89 89 84 81 79 79 75 69 64 62 54 49 54 51 45 56 56 50 44 35 22 15 46 89 88 74 61 58 57 71 74 81
120 127 112 108 103 99 95 98 99 98 94 89 99 98 86 84 84 79 72 67 67 67 63 58 57 50 50 49 45 39 26 10 355 347 307 126 72 64 63 58 74 80 80
130 119 110 108 107 105 101 96 97 96 94 91 92 101 98 96 87 82 78 74 72 69 66 64 60 60 57 50 41 32 17 4 350 344 35 44 71 54 53 58 71 71 76
90 99 103 104 104 103 101 101 102 103 100 94 94 99 107 101 94 91 87 85 78 74 70 68 66 59 54 49 40 28 11 359 344 8 61 51 49 38 45 43 60 62 55
107 104 98 104 108 106 108 111 110 111 111 109 105 105 101 112 106 101 97 92 84 77 71 64 59 55 49 45 40 32 11 354 355 25 53 54 38 40 44 50 56 61 64
109 112 106 114 113 110 107 111 113 113 115 116 114 111 112 129 113 105 103 97 87 82 73 65 58 56 52 45 37 27 12 350 352 28 63 64 29 45 51 54 62 67 62
102 117 118 110 110 109 107 110 118 120 121 118 115 123 113 126 125 114 109 101 93 83 74 65 60 53 48 43 31 17 355 341 3 47 77 64 26 46 44 45 49 59 65
114 126 134 131 115 101 99 105 114 120 115 113 106 108 99 105 125 119 111 105 94 85 80 63 51 45 36 28 17 360 338 326 342 31 86 57 24 44 46 48 43 43 43
150 149 140 136 155 143 123 97 104 105 104 103 106 117 123 117 112 117 106 92 93 91 81 65 46 21 335 347 338 317 312 313 288 109 72 62 35 44 47 49 44 39 40
161 166 136 154 164 146 136 137 132 129 133 130 132 151 162 175 152 98 100 106 105 105 107 97 306 268 264 254 265 278 317 288 359 74 66 51 35 28 34 38 37 31 23
171 173 161 176 158 161 146 157 176 163 179 184 177 187 211 99 85 117 135 141 144 157 182 187 251 287 291 180 248 275 326 1 29 80 68 61 36 35 38 31 27 17 2
178 172 169 172 167 166 180 170 168 171 177 155 159 125 146 122 154 166 155 172 180 201 212 209 244 85 9 7 9 4 2 346 55 83 88 71 38 18 18 14 8 6 3
189 176 169 165 167 189 169 165 179 164 155 159 149 137 170 186 162 150 125 146 154 56 329 309 336 315 250 239 84 35 38 11 11 45 93 102 63 15 1 355 351 351 351
181 177 165 164 166 188 156 188 185 151 144 175 132 152 317 222 134 81 100 42 80 44 12 0 356 12 2 360 346 24 9 7 22 47 130 134 101 41 0 346 341 337 331
170 172 165 169 161 172 168 177 167 150 178 113 128 159 197 79 135 89 101 84 55 47 18 9 8 2 329 29 350 11 5 353 351 359 360 153 161 312 6 350 343 338 330
170 165 169 161 169 162 177 160 160 165 114 114 108 75 86 85 95 110 105 98 91 68 326 340 343 357 321 336 281 257 237 255 292 302 332 31 307 254 4 7 8 347 337
167 165 167 169 171 167 174 165 172 144 133 151 138 144 141 127 119 127 132 131 97 3 54 358 17 0 339 348 334 323 343 359 330 311 32 356 46 32 336 31 8 14 7
179 167 168 167 166 173 177 163 172 155 171 161 147 145 159 139 143 134 139 120 125 84 59 43 346 120 347 340 319 308 318 334 333 357 346 35 55 50 337 221 178 68 27
183 171 162 162 162 164 166 154 156 134 153 139 147 145 143 152 158 140 129 128 149 166 220 163 210 354 137 295 329 318 294 268 231 302 325 23 57 43 0 354 309 237 46
184 169 165 159 159 157 152 154 152 161 167 161 169 163 165 162 174 182 165 154 173 174 169 99 46 71 320 259 356 310 280 239 200 219 111 25 33 50 32 12 350 358 25
178 174 168 161 163 163 151 159 152 164 179 165 168 158 163 159 159 188 180 182 176 155 141 175 159 327 240 148 161 305 322 343 336 191 103 79 70 54 352 41 351 353 340
167 171 179 174 166 165 157 153 165 138 127 147 172 169 187 173 166 185 174 169 164 146 203 187 174 178 229 316 166 150 355 298 327 346 193 90 46 331 293 241 347 345 10
164 165 185 194 167 159 153 162 168 173 164 190 164 167 184 181 168 172 172 165 169 168 213 183 188 185 128 232 326 218 198 158 240 333 337 224 183 258 270 343 17 7 37
141 154 173 194 167 152 163 149 153 169 192 166 164 173 167 175 166 166 168 185 181 180 204 198 145 185 197 189 214 311 243 237 219 194 273 302 286 221 212 145 42 327 86
96 109 142 176 179 154 159 160 177 196 211 163 158 160 163 165 173 178 189 185 190 190 187 175 187 198 238 263 261 286 250 245 263 250 257 273 225 189 168 82 68 314 54